VOYAGER:2:PRINTED,ON:,27-APR-02:14:39:09:GROUP32
START_TIME,STOP_TIME,SECTOR,SCAN_DIR,E44FLUX,E44UNC,E45FLUX,E45UNC,E37FLUX,E37UNC,P31FLUX,P31UNC
1989-08-29T19:54:22.790 ,1989-08-29 19:54:46.790 ,9,0,38.4,1.59,0.286,9.544E-02,0.000E+00,0.000E+00,2.968E-02,2.388E-03
1989-08-29T19:54:46.790 ,1989-08-29 19:55:10.790 ,9,0,15.7,1.02,0.286,9.544E-02,0.000E+00,0.000E+00,2.409E-02,2.153E-03
1989-08-29T19:55:10.790 ,1989-08-29 19:55:17.170 ,7,1,14.5,2.18,0.000E+00,0.000E+00,-1.00,-1.00,2.561E-02,4.597E-03
1989-08-29T19:55:17.980 ,1989-08-29 19:56:22.730 ,8,1,12.8,0.568,0.371,7.013E-02,1.064E-02,1.064E-02,3.214E-02,1.552E-03
1989-08-29T19:56:22.790 ,1989-08-29 19:56:53.170 ,8,-1,12.7,0.818,0.345,9.560E-02,0.000E+00,0.000E+00,3.028E-02,2.143E-03
1989-08-29T19:56:53.980 ,1989-08-29 19:57:41.170 ,7,-1,13.1,0.664,0.354,7.905E-02,1.064E-02,1.064E-02,3.090E-02,1.753E-03
1989-08-29T19:57:41.980 ,1989-08-29 19:58:29.170 ,6,-1,13.5,0.673,0.283,7.071E-02,0.000E+00,0.000E+00,3.170E-02,1.773E-03
1989-08-29T19:58:29.980 ,1989-08-29 19:59:17.170 ,5,-1,11.5,0.640,0.424,8.658E-02,4.256E-02,2.128E-02,3.073E-02,1.762E-03
1989-08-29T19:59:17.980 ,1989-08-29 19:00:05.170 ,4,-1,12.7,0.656,0.442,8.839E-02,1.064E-02,1.064E-02,2.992E-02,1.739E-03
1989-08-29T20:00:05.980 ,1989-08-29 20:00:53.170 ,3,-1,13.1,0.664,0.283,7.071E-02,0.000E+00,0.000E+00,2.911E-02,1.715E-03
1989-08-29T20:00:53.980 ,1989-08-29 20:01:41.170 ,2,-1,12.4,0.646,0.265,6.844E-02,1.064E-02,1.064E-02,3.244E-02,1.779E-03
1989-08-29T20:01:41.170 ,1989-08-29 20:02:29.540 ,1,-1,11.2,0.753,0.259,7.170E-02,1.064E-02,1.064E-02,3.093E-02,2.112E-03
1989-08-29T20:02:29.980 ,1989-08-29 20:03:17.160 ,1,1,12.8,0.658,0.265,6.844E-02,0.000E+00,0.000E+00,2.751E-02,1.655E-03
1989-08-29T20:03:17.980 ,1989-08-29 20:04:05.160 ,2,1,12.2,0.641,0.389,8.288E-02,1.064E-02,1.064E-02,2.931E-02,1.708E-03
1989-08-29T20:04:05.980 ,1989-08-29 20:04:53.170 ,3,1,12.4,0.656,0.212,6.122E-02,0.000E+00,0.000E+00,3.204E-02,1.767E-03
1989-08-29T20:04:53.980 ,1989-08-29 20:05:41.170 ,4,1,12.3,0.644,0.283,7.071E-02,0.000E+00,0.000E+00,2.881E-02,1.679E-03
1989-08-29T20:05:41.980 ,1989-08-29 20:06:29.170 ,5,1,12.1,0.639,0.265,6.844E-02,4.256E-02,2.128E-02,3.040E-02,1.739E-03
1989-08-29T20:06:29.980 ,1989-08-29 20:07:17.170 ,6,1,12.4,0.648,0.389,8.288E-02,0.000E+00,0.000E+00,3.056E-02,1.772E-03
1989-08-29T20:07:17.980 ,1989-08-29 20:08:05.170 ,7,1,12.9,0.660,0.301,7.288E-02,2.128E-02,1.505E-02,2.634E-02,1.679E-03
1989-08-29T20:08:05.980 ,1989-08-29 20:09:10.730 ,8,1,12.2,0.556,0.371,7.013E-02,1.064E-02,1.064E-02,2.957E-02,1.469E-03
1989-08-29T20:09:10.790 ,1989-08-29 20:09:41.160 ,8,-1,14.4,0.871,0.265,8.382E-02,1.064E-02,1.064E-02,3.328E-02,2.278E-03
1989-08-29T20:09:41.980 ,1989-08-29 20:10:29.160 ,7,-1,14.5,0.698,0.247,6.612E-02,0.000E+00,0.000E+00,2.702E-02,1.684E-03
1989-08-29T20:10:29.980 ,1989-08-29 20:11:17.160 ,6,-1,13.2,0.668,0.212,6.122E-02,0.000E+00,0.000E+00,3.159E-02,1.802E-03
1989-08-29T20:11:17.980 ,1989-08-29 20:12:05.160 ,5,-1,12.8,0.664,0.283,7.071E-02,1.064E-02,1.064E-02,2.940E-02,1.695E-03
1989-08-29T20:12:05.980 ,1989-08-29 20:12:53.160 ,4,-1,13.2,0.666,0.354,7.905E-02,1.064E-02,1.064E-02,3.337E-02,1.835E-03
1989-08-29T20:12:53.980 ,1989-08-29 20:13:41.160 ,3,-1,12.1,0.637,0.230,6.374E-02,2.128E-02,1.505E-02,2.658E-02,1.640E-03
1989-08-29T20:13:41.980 ,1989-08-29 20:14:29.160 ,2,-1,11.9,0.642,0.354,7.905E-02,1.064E-02,1.064E-02,3.332E-02,1.807E-03
1989-08-29T20:14:29.160 ,1989-08-29 20:15:17.540 ,1,-1,11.9,0.808,0.278,7.439E-02,0.000E+00,0.000E+00,3.585E-02,2.274E-03
1989-08-29T20:15:17.980 ,1989-08-29 20:16:05.160 ,1,1,13.0,0.661,0.336,7.704E-02,1.064E-02,1.064E-02,3.240E-02,1.797E-03
1989-08-29T20:16:05.980 ,1989-08-29 20:16:53.160 ,2,1,12.0,0.638,0.194,5.861E-02,4.256E-02,2.128E-02,3.195E-02,1.797E-03
1989-08-29T20:16:53.980 ,1989-08-29 20:17:41.160 ,3,1,12.5,0.649,0.354,7.905E-02,1.064E-02,1.064E-02,2.972E-02,1.732E-03
1989-08-29T20:17:41.980 ,1989-08-29 20:18:29.160 ,4,1,12.1,0.639,0.212,6.122E-02,0.000E+00,0.000E+00,3.359E-02,1.827E-03
1989-08-29T20:18:29.980 ,1989-08-29 20:19:16.730 ,5,1,12.5,0.649,0.283,7.071E-02,1.064E-02,1.064E-02,3.283E-02,1.790E-03
1989-08-29T20:19:17.160 ,1989-08-29 20:19:34.730 ,6,1,12.7,1.09,0.318,0.130,-1.00,-1.00,2.833E-02,2.860E-03
1989-08-29T20:19:34.790 ,1989-08-29 20:19:58.790 ,9,0,13.1,1.25,0.398,0.178,0.000E+00,0.000E+00,2.891E-02,3.135E-03
1989-08-29T20:21:07.190 ,1989-08-29 20:21:31.190 ,9,0,11.4,2.24,0.000E+00,0.000E+00,-1.00,-1.00,3.180E-02,6.777E-03
1989-08-29T20:21:10.790 ,1989-08-29 20:21:34.790 ,9,0,13.2,1.20,5.303E-02,5.303E-02,0.000E+00,0.000E+00,2.730E-02,2.961E-03
1989-08-29T20:21:34.790 ,1989-08-29 20:21:58.730 ,8,0,13.7,0.975,0.239,9.740E-02,-1.00,-1.00,3.035E-02,2.499E-03
1989-08-29T20:21:58.790 ,1989-08-29 20:22:29.160 ,8,-1,13.7,0.847,0.530,0.119,1.064E-02,1.064E-02,3.271E-02,2.229E-03
1989-08-29T20:22:29.980 ,1989-08-29 20:23:17.160 ,7,-1,13.3,0.670,0.336,7.704E-02,1.064E-02,1.064E-02,3.185E-02,1.767E-03
1989-08-29T20:23:17.980 ,1989-08-29 20:24:05.160 ,6,-1,11.8,0.640,0.336,7.704E-02,0.000E+00,0.000E+00,3.286E-02,1.823E-03
1989-08-29T20:24:05.980 ,1989-08-29 20:24:53.160 ,5,-1,10.9,0.607,0.354,7.905E-02,1.064E-02,1.064E-02,2.779E-02,1.676E-03
1989-08-29T20:24:53.980 ,1989-08-29 20:25:41.160 ,4,-1,11.5,0.630,0.354,7.905E-02,2.128E-02,1.505E-02,2.791E-02,1.666E-03
1989-08-29T20:25:41.980 ,1989-08-29 20:26:29.160 ,3,-1,13.4,0.673,0.247,6.612E-02,1.064E-02,1.064E-02,3.240E-02,1.797E-03
1989-08-29T20:26:29.980 ,1989-08-29 20:27:17.160 ,2,-1,13.0,0.669,0.265,6.844E-02,1.064E-02,1.064E-02,3.297E-02,1.829E-03
1989-08-29T20:27:17.160 ,1989-08-29 20:28:05.540 ,1,-1,11.5,0.795,0.259,7.170E-02,0.000E+00,0.000E+00,2.819E-02,2.017E-03
1989-08-29T20:28:05.980 ,1989-08-29 20:28:53.160 ,1,1,12.4,0.647,0.336,7.704E-02,1.064E-02,1.064E-02,3.100E-02,1.754E-03
1989-08-29T20:28:53.980 ,1989-08-29 20:29:41.160 ,2,1,12.5,0.649,0.301,7.288E-02,1.064E-02,1.064E-02,3.087E-02,1.736E-03
1989-08-29T20:29:41.980 ,1989-08-29 20:30:29.160 ,3,1,11.9,0.642,0.230,6.374E-02,1.064E-02,1.064E-02,2.982E-02,1.738E-03
1989-08-29T20:30:29.980 ,1989-08-29 20:31:17.160 ,4,1,12.4,0.654,0.301,7.288E-02,1.064E-02,1.064E-02,3.220E-02,1.791E-03
1989-08-29T20:31:17.980 ,1989-08-29 20:32:05.160 ,5,1,12.7,0.661,0.389,8.288E-02,0.000E+00,0.000E+00,3.205E-02,1.803E-03
1989-08-29T20:32:05.980 ,1989-08-29 20:32:53.160 ,6,1,12.3,0.642,0.301,7.288E-02,1.064E-02,1.064E-02,3.080E-02,1.752E-03
1989-08-29T20:32:53.980 ,1989-08-29 20:33:41.160 ,7,1,12.7,0.656,0.212,6.122E-02,0.000E+00,0.000E+00,3.053E-02,1.756E-03
1989-08-29T20:33:41.980 ,1989-08-29 20:34:46.730 ,8,1,13.5,0.578,0.292,6.216E-02,1.064E-02,1.064E-02,3.041E-02,1.511E-03
1989-08-29T20:34:46.790 ,1989-08-29 20:35:17.160 ,8,-1,13.1,0.846,0.186,7.013E-02,0.000E+00,0.000E+00,2.969E-02,2.153E-03
1989-08-29T20:35:17.970 ,1989-08-29 20:35:34.720 ,7,-1,16.2,1.23,0.424,0.150,-1.00,-1.00,2.804E-02,2.844E-03
1989-08-29T20:35:34.790 ,1989-08-29 20:35:58.790 ,9,0,12.7,0.939,0.358,0.119,0.000E+00,0.000E+00,3.270E-02,2.549E-03
1989-08-29T20:37:14.390 ,1989-08-29 20:37:38.390 ,9,0,10.6,0.907,0.350,0.105,1.064E-02,1.064E-02,2.960E-02,2.613E-03
1989-08-29T20:37:34.790 ,1989-08-29 20:37:41.160 ,5,-1,12.1,1.79,0.318,0.225,-1.00,-1.00,3.614E-02,5.110E-03
1989-08-29T20:37:41.970 ,1989-08-29 20:38:29.160 ,4,-1,11.6,0.627,0.389,8.288E-02,0.000E+00,0.000E+00,3.035E-02,1.769E-03
1989-08-29T20:38:29.970 ,1989-08-29 20:39:17.160 ,3,-1,11.9,0.632,0.336,7.704E-02,2.128E-02,1.505E-02,2.920E-02,1.688E-03
1989-08-29T20:39:17.970 ,1989-08-29 20:40:05.160 ,2,-1,12.0,0.645,0.424,8.658E-02,0.000E+00,0.000E+00,3.114E-02,1.776E-03
1989-08-29T20:40:05.160 ,1989-08-29 20:40:53.540 ,1,-1,12.3,0.806,0.537,0.103,1.064E-02,1.064E-02,3.043E-02,2.149E-03
1989-08-29T20:40:53.970 ,1989-08-29 20:41:41.160 ,1,1,11.5,0.640,0.371,8.097E-02,1.064E-02,1.064E-02,3.351E-02,1.812E-03
1989-08-29T20:41:41.970 ,1989-08-29 20:42:29.160 ,2,1,11.8,0.632,0.371,8.097E-02,0.000E+00,0.000E+00,3.087E-02,1.736E-03
1989-08-29T20:42:29.970 ,1989-08-29 20:43:17.160 ,3,1,11.8,0.632,0.424,8.658E-02,0.000E+00,0.000E+00,3.381E-02,1.817E-03
1989-08-29T20:43:17.970 ,1989-08-29 20:44:05.160 ,4,1,12.8,0.658,0.301,7.288E-02,0.000E+00,0.000E+00,2.571E-02,1.627E-03
1989-08-29T20:44:05.970 ,1989-08-29 20:44:53.160 ,5,1,11.9,0.651,0.265,6.844E-02,0.000E+00,0.000E+00,2.698E-02,1.653E-03
1989-08-29T20:44:53.970 ,1989-08-29 20:45:41.160 ,6,1,11.5,0.621,0.247,6.612E-02,1.064E-02,1.064E-02,3.215E-02,1.804E-03
1989-08-29T20:45:41.970 ,1989-08-29 20:46:29.160 ,7,1,13.5,0.676,0.336,7.704E-02,3.192E-02,1.843E-02,3.224E-02,1.773E-03
1989-08-29T20:46:29.970 ,1989-08-29 20:47:34.720 ,8,1,12.3,0.553,0.331,6.629E-02,0.000E+00,0.000E+00,2.807E-02,1.461E-03
1989-08-29T20:47:34.790 ,1989-08-29 20:48:05.160 ,8,-1,13.2,0.832,0.345,9.560E-02,1.064E-02,1.064E-02,2.434E-02,1.921E-03
1989-08-29T20:48:05.970 ,1989-08-29 20:48:53.160 ,7,-1,12.9,0.677,0.283,7.071E-02,1.064E-02,1.064E-02,3.124E-02,1.777E-03
1989-08-29T20:48:53.970 ,1989-08-29 20:49:41.160 ,6,-1,12.5,0.658,0.230,6.374E-02,0.000E+00,0.000E+00,2.607E-02,1.654E-03
1989-08-29T20:49:41.970 ,1989-08-29 20:50:29.160 ,5,-1,11.4,0.619,0.212,6.122E-02,1.064E-02,1.064E-02,2.991E-02,1.724E-03
1989-08-29T20:50:29.970 ,1989-08-29 20:51:17.160 ,4,-1,11.4,0.628,0.389,8.288E-02,0.000E+00,0.000E+00,3.028E-02,1.783E-03
1989-08-29T20:51:17.970 ,1989-08-29 20:52:05.160 ,3,-1,12.8,0.658,0.230,6.374E-02,2.128E-02,1.505E-02,2.660E-02,1.671E-03
1989-08-29T20:52:05.970 ,1989-08-29 20:52:53.160 ,2,-1,11.2,0.629,0.301,7.288E-02,1.064E-02,1.064E-02,3.160E-02,1.773E-03
1989-08-29T20:52:53.160 ,1989-08-29 20:53:41.540 ,1,-1,12.6,0.812,0.318,7.955E-02,0.000E+00,0.000E+00,2.950E-02,2.088E-03
1989-08-29T20:53:41.970 ,1989-08-29 20:54:29.160 ,1,1,12.8,0.666,0.354,7.905E-02,1.064E-02,1.064E-02,3.144E-02,1.784E-03
1989-08-29T20:54:29.970 ,1989-08-29 20:54:46.720 ,2,1,10.4,1.03,0.265,0.119,-1.00,-1.00,3.139E-02,2.938E-03
1989-08-29T20:54:46.790 ,1989-08-29 20:55:10.790 ,9,0,11.9,0.908,0.438,0.132,0.000E+00,0.000E+00,3.469E-02,2.629E-03
1989-08-29T20:55:28.190 ,1989-08-29 20:55:52.190 ,9,0,10.5,1.52,0.477,0.195,-1.00,-1.00,3.180E-02,4.790E-03
1989-08-29T20:55:34.790 ,1989-08-29 20:55:58.790 ,9,0,12.1,0.893,0.286,9.544E-02,0.000E+00,0.000E+00,3.064E-02,2.428E-03
1989-08-29T20:55:58.790 ,1989-08-29 20:56:05.160 ,3,1,12.4,1.81,0.477,0.276,-1.00,-1.00,2.530E-02,4.273E-03
1989-08-29T20:56:05.970 ,1989-08-29 20:56:53.160 ,4,1,12.8,0.657,0.265,6.844E-02,0.000E+00,0.000E+00,3.236E-02,1.810E-03
1989-08-29T20:56:53.970 ,1989-08-29 20:57:41.160 ,5,1,13.7,0.679,0.318,7.497E-02,0.000E+00,0.000E+00,3.150E-02,1.772E-03
1989-08-29T20:57:41.970 ,1989-08-29 20:58:29.160 ,6,1,11.7,0.636,0.371,8.097E-02,2.128E-02,1.505E-02,2.851E-02,1.684E-03
1989-08-29T20:58:29.970 ,1989-08-29 20:59:17.160 ,7,1,14.4,0.696,0.442,8.839E-02,2.128E-02,1.505E-02,3.120E-02,1.760E-03
1989-08-29T20:59:17.970 ,1989-08-29 20:00:22.720 ,8,1,12.3,0.569,0.358,6.885E-02,0.000E+00,0.000E+00,2.943E-02,1.476E-03
1989-08-29T21:00:22.790 ,1989-08-29 21:00:53.160 ,8,-1,13.6,0.846,0.318,9.183E-02,2.128E-02,1.505E-02,2.876E-02,2.089E-03
1989-08-29T21:00:53.970 ,1989-08-29 21:01:34.720 ,7,-1,13.5,0.721,0.298,7.700E-02,0.000E+00,0.000E+00,3.284E-02,1.945E-03
1989-08-29T21:01:34.790 ,1989-08-29 21:01:58.790 ,9,0,55.9,2.58,0.265,0.119,1.064E-02,1.064E-02,3.129E-02,3.261E-03
1989-08-29T21:02:34.180 ,1989-08-29 21:02:58.180 ,9,0,11.1,1.71,0.000E+00,0.000E+00,0.000E+00,0.000E+00,3.758E-02,5.209E-03
1989-08-29T21:02:46.790 ,1989-08-29 21:03:10.790 ,9,0,14.6,1.32,0.424,0.150,3.192E-02,1.843E-02,2.823E-02,3.096E-03
1989-08-29T21:03:21.750 ,1989-08-29 21:03:22.560 ,5,-1,9.23,3.49,-1.00,-1.00,-1.00,-1.00,2.891E-02,1.293E-02
1989-08-29T21:03:23.370 ,1989-08-29 21:03:40.120 ,4,-1,13.4,1.12,0.000E+00,0.000E+00,-1.00,-1.00,3.469E-02,3.090E-03
1989-08-29T21:03:34.790 ,1989-08-29 21:03:58.720 ,4,1,14.0,0.959,0.286,9.544E-02,0.000E+00,0.000E+00,3.276E-02,2.508E-03
1989-08-29T21:03:58.790 ,1989-08-29 21:04:05.160 ,4,-1,11.9,1.77,0.318,0.225,-1.00,-1.00,3.325E-02,4.898E-03
1989-08-29T21:04:05.970 ,1989-08-29 21:04:53.160 ,3,-1,12.9,0.662,0.389,8.288E-02,1.064E-02,1.064E-02,2.576E-02,1.614E-03
1989-08-29T21:04:53.970 ,1989-08-29 21:05:41.160 ,2,-1,12.4,0.656,0.336,7.704E-02,1.064E-02,1.064E-02,3.033E-02,1.753E-03
1989-08-29T21:05:41.160 ,1989-08-29 21:06:29.540 ,1,-1,12.4,0.808,0.358,8.435E-02,1.064E-02,1.064E-02,3.151E-02,2.132E-03
1989-08-29T21:06:29.970 ,1989-08-29 21:07:17.160 ,1,1,13.4,0.673,0.283,7.071E-02,0.000E+00,0.000E+00,3.097E-02,1.742E-03
1989-08-29T21:07:17.970 ,1989-08-29 21:08:05.160 ,2,1,13.3,0.669,0.407,8.475E-02,2.128E-02,1.505E-02,3.087E-02,1.736E-03
1989-08-29T21:08:05.970 ,1989-08-29 21:08:53.160 ,3,1,13.2,0.666,0.301,7.288E-02,1.064E-02,1.064E-02,3.322E-02,1.801E-03
1989-08-29T21:08:53.970 ,1989-08-29 21:09:41.160 ,4,1,11.9,0.642,0.265,6.844E-02,0.000E+00,0.000E+00,3.215E-02,1.804E-03
1989-08-29T21:09:41.970 ,1989-08-29 21:10:29.160 ,5,1,11.6,0.634,0.442,8.839E-02,1.064E-02,1.064E-02,3.165E-02,1.761E-03
1989-08-29T21:10:29.970 ,1989-08-29 21:11:17.160 ,6,1,11.3,0.618,0.301,7.288E-02,1.064E-02,1.064E-02,3.050E-02,1.740E-03
1989-08-29T21:11:17.970 ,1989-08-29 21:12:05.160 ,7,1,13.2,0.666,0.301,7.288E-02,0.000E+00,0.000E+00,3.146E-02,1.755E-03
1989-08-29T21:12:05.970 ,1989-08-29 21:13:10.720 ,8,1,13.9,0.587,0.265,5.929E-02,3.192E-02,1.843E-02,3.336E-02,1.569E-03
1989-08-29T21:13:10.780 ,1989-08-29 21:13:41.160 ,8,-1,13.9,0.855,0.239,7.954E-02,0.000E+00,0.000E+00,3.104E-02,2.173E-03
1989-08-29T21:13:41.970 ,1989-08-29 21:14:29.160 ,7,-1,14.5,0.718,0.424,8.658E-02,0.000E+00,0.000E+00,3.260E-02,1.798E-03
1989-08-29T21:14:29.970 ,1989-08-29 21:15:17.160 ,6,-1,13.4,0.673,0.212,6.122E-02,1.064E-02,1.064E-02,2.972E-02,1.732E-03
1989-08-29T21:15:17.970 ,1989-08-29 21:16:05.160 ,5,-1,12.3,0.642,0.177,5.588E-02,0.000E+00,0.000E+00,2.961E-02,1.716E-03
1989-08-29T21:16:05.970 ,1989-08-29 21:16:53.160 ,4,-1,11.6,0.627,0.442,8.839E-02,1.064E-02,1.064E-02,3.100E-02,1.754E-03
1989-08-29T21:16:53.970 ,1989-08-29 21:17:41.160 ,3,-1,13.2,0.674,0.283,7.071E-02,1.064E-02,1.064E-02,3.170E-02,1.773E-03
1989-08-29T21:17:41.970 ,1989-08-29 21:18:29.160 ,2,-1,11.9,0.634,0.265,6.844E-02,0.000E+00,0.000E+00,3.236E-02,1.810E-03
1989-08-29T21:18:29.160 ,1989-08-29 21:19:17.530 ,1,-1,13.0,0.843,0.338,8.198E-02,0.000E+00,0.000E+00,3.134E-02,2.179E-03
1989-08-29T21:19:17.970 ,1989-08-29 21:20:05.160 ,1,1,12.8,0.658,0.336,7.704E-02,0.000E+00,0.000E+00,3.256E-02,1.816E-03
1989-08-29T21:20:05.970 ,1989-08-29 21:20:53.160 ,2,1,12.7,0.661,0.283,7.071E-02,2.128E-02,1.505E-02,3.011E-02,1.731E-03
1989-08-29T21:20:53.970 ,1989-08-29 21:21:41.160 ,3,1,12.3,0.663,0.336,7.704E-02,0.000E+00,0.000E+00,2.943E-02,1.743E-03
1989-08-29T21:21:41.970 ,1989-08-29 21:22:29.160 ,4,1,12.8,0.657,0.265,6.844E-02,2.128E-02,1.505E-02,3.297E-02,1.829E-03
1989-08-29T21:22:29.970 ,1989-08-29 21:23:17.160 ,5,1,11.8,0.631,0.212,6.122E-02,0.000E+00,0.000E+00,2.821E-02,1.675E-03
1989-08-29T21:23:17.970 ,1989-08-29 21:24:05.160 ,6,1,11.7,0.636,0.495,9.350E-02,2.128E-02,1.505E-02,3.048E-02,1.724E-03
1989-08-29T21:24:05.970 ,1989-08-29 21:24:53.160 ,7,1,10.8,0.628,0.318,7.497E-02,1.064E-02,1.064E-02,2.666E-02,1.687E-03
1989-08-29T21:24:53.970 ,1989-08-29 21:25:58.720 ,8,1,12.9,0.571,0.318,6.493E-02,1.064E-02,1.064E-02,3.064E-02,1.484E-03
1989-08-29T21:25:58.780 ,1989-08-29 21:26:29.160 ,8,-1,12.4,0.809,0.371,9.919E-02,1.064E-02,1.064E-02,2.627E-02,2.081E-03
1989-08-29T21:26:29.970 ,1989-08-29 21:27:17.160 ,7,-1,13.7,0.680,0.407,8.475E-02,0.000E+00,0.000E+00,2.795E-02,1.729E-03
1989-08-29T21:27:17.970 ,1989-08-29 21:28:05.160 ,6,-1,13.4,0.673,0.301,7.288E-02,1.064E-02,1.064E-02,3.170E-02,1.773E-03
1989-08-29T21:28:05.970 ,1989-08-29 21:28:53.160 ,5,-1,12.9,0.662,0.424,8.658E-02,0.000E+00,0.000E+00,2.996E-02,1.774E-03
1989-08-29T21:28:53.970 ,1989-08-29 21:29:41.160 ,4,-1,13.2,0.666,0.407,8.475E-02,1.064E-02,1.064E-02,2.901E-02,1.727E-03
1989-08-29T21:29:41.970 ,1989-08-29 21:30:29.160 ,3,-1,13.0,0.669,0.212,6.122E-02,0.000E+00,0.000E+00,3.175E-02,1.761E-03
1989-08-29T21:30:29.970 ,1989-08-29 21:31:17.160 ,2,-1,12.8,0.666,0.230,6.374E-02,1.064E-02,1.064E-02,2.891E-02,1.712E-03
1989-08-29T21:31:17.160 ,1989-08-29 21:32:05.530 ,1,-1,12.5,0.797,0.398,8.893E-02,1.064E-02,1.064E-02,2.846E-02,2.050E-03
1989-08-29T21:32:05.970 ,1989-08-29 21:32:53.160 ,1,1,12.1,0.637,0.389,8.288E-02,0.000E+00,0.000E+00,3.043E-02,1.755E-03
1989-08-29T21:32:53.970 ,1989-08-29 21:33:41.160 ,2,1,10.5,0.629,0.318,7.497E-02,2.128E-02,1.505E-02,2.739E-02,1.665E-03
1989-08-29T21:33:41.970 ,1989-08-29 21:34:29.160 ,3,1,11.4,0.636,0.318,7.497E-02,0.000E+00,0.000E+00,3.038E-02,1.723E-03
1989-08-29T21:34:29.970 ,1989-08-29 21:35:17.160 ,4,1,13.3,0.679,0.265,6.844E-02,2.128E-02,1.505E-02,3.038E-02,1.723E-03
1989-08-29T21:35:17.970 ,1989-08-29 21:36:05.160 ,5,1,12.0,0.645,0.247,6.612E-02,1.064E-02,1.064E-02,3.200E-02,1.785E-03
1989-08-29T21:36:05.970 ,1989-08-29 21:36:53.160 ,6,1,13.2,0.667,0.265,6.844E-02,1.064E-02,1.064E-02,2.749E-02,1.667E-03
1989-08-29T21:36:53.970 ,1989-08-29 21:37:41.160 ,7,1,14.4,0.696,0.265,6.844E-02,0.000E+00,0.000E+00,3.101E-02,1.803E-03
1989-08-29T21:37:41.970 ,1989-08-29 21:38:46.720 ,8,1,13.3,0.575,0.358,6.885E-02,1.064E-02,1.064E-02,3.256E-02,1.572E-03
1989-08-29T21:38:46.780 ,1989-08-29 21:39:17.160 ,8,-1,12.3,0.806,0.451,0.109,0.000E+00,0.000E+00,3.195E-02,2.202E-03
1989-08-29T21:39:17.970 ,1989-08-29 21:40:05.160 ,7,-1,12.7,0.661,0.407,8.475E-02,1.064E-02,1.064E-02,3.314E-02,1.849E-03
1989-08-29T21:40:05.970 ,1989-08-29 21:40:53.160 ,6,-1,11.3,0.618,0.301,7.288E-02,0.000E+00,0.000E+00,3.399E-02,1.838E-03
1989-08-29T21:40:53.970 ,1989-08-29 21:41:41.160 ,5,-1,11.4,0.628,0.336,7.704E-02,0.000E+00,0.000E+00,2.841E-02,1.682E-03
1989-08-29T21:41:41.970 ,1989-08-29 21:42:29.160 ,4,-1,12.4,0.656,0.336,7.704E-02,0.000E+00,0.000E+00,3.043E-02,1.755E-03
1989-08-29T21:42:29.970 ,1989-08-29 21:43:17.160 ,3,-1,12.8,0.657,0.301,7.288E-02,2.128E-02,1.505E-02,2.951E-02,1.710E-03
1989-08-29T21:43:17.970 ,1989-08-29 21:44:05.160 ,2,-1,11.8,0.640,0.354,7.905E-02,1.064E-02,1.064E-02,3.320E-02,1.815E-03
1989-08-29T21:44:05.160 ,1989-08-29 21:44:53.530 ,1,-1,11.7,0.783,0.219,6.594E-02,1.064E-02,1.064E-02,3.180E-02,2.142E-03
1989-08-29T21:44:53.970 ,1989-08-29 21:45:41.160 ,1,1,12.5,0.649,0.301,7.288E-02,1.064E-02,1.064E-02,2.921E-02,1.721E-03
1989-08-29T21:45:41.970 ,1989-08-29 21:46:29.160 ,2,1,10.2,0.621,0.371,8.097E-02,1.064E-02,1.064E-02,2.822E-02,1.663E-03
1989-08-29T21:46:29.970 ,1989-08-29 21:47:17.160 ,3,1,12.3,0.642,0.477,9.180E-02,0.000E+00,0.000E+00,3.018E-02,1.717E-03
1989-08-29T21:47:17.970 ,1989-08-29 21:48:05.160 ,4,1,12.1,0.647,0.424,8.658E-02,0.000E+00,0.000E+00,3.040E-02,1.739E-03
1989-08-29T21:48:05.970 ,1989-08-29 21:48:53.160 ,5,1,12.4,0.654,0.318,7.497E-02,0.000E+00,0.000E+00,3.100E-02,1.754E-03
1989-08-29T21:48:53.970 ,1989-08-29 21:49:41.160 ,6,1,13.5,0.683,0.301,7.288E-02,1.064E-02,1.064E-02,2.991E-02,1.724E-03
1989-08-29T21:49:41.970 ,1989-08-29 21:50:29.160 ,7,1,12.7,0.672,0.301,7.288E-02,0.000E+00,0.000E+00,3.144E-02,1.784E-03
1989-08-29T21:50:29.970 ,1989-08-29 21:51:34.720 ,8,1,13.1,0.570,0.305,6.356E-02,1.064E-02,1.064E-02,3.139E-02,1.535E-03
1989-08-29T21:51:34.780 ,1989-08-29 21:52:05.160 ,8,-1,11.6,0.781,0.292,8.791E-02,0.000E+00,0.000E+00,3.532E-02,2.345E-03
1989-08-29T21:52:05.970 ,1989-08-29 21:52:53.160 ,7,-1,14.8,0.706,0.265,6.844E-02,2.128E-02,1.505E-02,3.190E-02,1.814E-03
1989-08-29T21:52:53.970 ,1989-08-29 21:53:41.160 ,6,-1,13.5,0.685,0.283,7.071E-02,1.064E-02,1.064E-02,3.408E-02,1.859E-03
1989-08-29T21:53:41.970 ,1989-08-29 21:54:29.160 ,5,-1,10.7,0.599,0.247,6.612E-02,0.000E+00,0.000E+00,2.779E-02,1.676E-03
1989-08-29T21:54:29.970 ,1989-08-29 21:55:17.160 ,4,-1,11.5,0.632,0.159,5.302E-02,0.000E+00,0.000E+00,3.015E-02,1.762E-03
1989-08-29T21:55:17.970 ,1989-08-29 21:56:05.160 ,3,-1,11.4,0.628,0.212,6.122E-02,0.000E+00,0.000E+00,3.302E-02,1.796E-03
1989-08-29T21:56:05.970 ,1989-08-29 21:56:53.160 ,2,-1,12.6,0.650,0.389,8.288E-02,1.064E-02,1.064E-02,2.726E-02,1.674E-03
1989-08-29T21:56:53.160 ,1989-08-29 21:57:41.530 ,1,-1,11.9,0.807,0.378,8.667E-02,1.064E-02,1.064E-02,2.845E-02,2.081E-03
1989-08-29T21:57:41.970 ,1989-08-29 21:58:29.160 ,1,1,11.8,0.631,0.336,7.704E-02,0.000E+00,0.000E+00,2.829E-02,1.706E-03
1989-08-29T21:58:29.970 ,1989-08-29 21:59:17.160 ,2,1,12.0,0.643,0.354,7.905E-02,1.064E-02,1.064E-02,3.020E-02,1.732E-03
1989-08-29T21:59:17.970 ,1989-08-29 21:00:05.160 ,3,1,13.4,0.673,0.318,7.497E-02,1.064E-02,1.064E-02,2.739E-02,1.665E-03
1989-08-29T22:00:05.970 ,1989-08-29 22:00:53.160 ,4,1,11.9,0.643,0.301,7.288E-02,0.000E+00,0.000E+00,3.347E-02,1.841E-03
1989-08-29T22:00:53.970 ,1989-08-29 22:01:41.160 ,5,1,12.1,0.639,0.407,8.475E-02,0.000E+00,0.000E+00,3.008E-02,1.716E-03
1989-08-29T22:01:41.970 ,1989-08-29 22:02:29.160 ,6,1,13.0,0.671,0.371,8.097E-02,0.000E+00,0.000E+00,2.653E-02,1.654E-03
1989-08-29T22:02:29.970 ,1989-08-29 22:03:17.160 ,7,1,13.4,0.672,0.477,9.180E-02,1.064E-02,1.064E-02,2.942E-02,1.724E-03
1989-08-29T22:03:17.970 ,1989-08-29 22:04:22.720 ,8,1,13.2,0.571,0.239,5.623E-02,0.000E+00,0.000E+00,3.026E-02,1.504E-03
1989-08-29T22:04:22.780 ,1989-08-29 22:04:53.160 ,8,-1,14.4,0.871,0.345,9.560E-02,2.128E-02,1.505E-02,3.210E-02,2.207E-03
1989-08-29T22:04:53.970 ,1989-08-29 22:05:41.150 ,7,-1,12.7,0.663,0.301,7.288E-02,2.128E-02,1.505E-02,2.767E-02,1.686E-03
1989-08-29T22:05:41.970 ,1989-08-29 22:06:29.150 ,6,-1,13.1,0.664,0.371,8.097E-02,1.064E-02,1.064E-02,2.931E-02,1.708E-03
1989-08-29T22:06:29.970 ,1989-08-29 22:07:17.150 ,5,-1,12.2,0.651,0.354,7.905E-02,0.000E+00,0.000E+00,2.692E-02,1.636E-03
1989-08-29T22:07:17.970 ,1989-08-29 22:08:05.150 ,4,-1,12.3,0.642,0.301,7.288E-02,0.000E+00,0.000E+00,3.165E-02,1.790E-03
1989-08-29T22:08:05.970 ,1989-08-29 22:08:53.160 ,3,-1,11.2,0.624,0.194,5.861E-02,1.064E-02,1.064E-02,2.830E-02,1.694E-03
1989-08-29T22:08:53.970 ,1989-08-29 22:09:41.160 ,2,-1,11.4,0.628,0.354,7.905E-02,0.000E+00,0.000E+00,3.063E-02,1.761E-03
1989-08-29T22:09:41.160 ,1989-08-29 22:10:29.530 ,1,-1,10.2,0.764,0.318,7.955E-02,2.128E-02,1.505E-02,3.098E-02,2.140E-03
1989-08-29T22:10:29.970 ,1989-08-29 22:11:17.160 ,1,1,12.0,0.653,0.354,7.905E-02,1.064E-02,1.064E-02,2.891E-02,1.712E-03
1989-08-29T22:11:17.970 ,1989-08-29 22:12:05.160 ,2,1,12.3,0.642,0.230,6.374E-02,0.000E+00,0.000E+00,2.963E-02,1.745E-03
1989-08-29T22:12:05.970 ,1989-08-29 22:12:53.160 ,3,1,13.4,0.681,0.424,8.658E-02,0.000E+00,0.000E+00,3.146E-02,1.755E-03
1989-08-29T22:12:53.970 ,1989-08-29 22:13:41.160 ,4,1,12.4,0.656,0.336,7.704E-02,0.000E+00,0.000E+00,3.144E-02,1.784E-03
1989-08-29T22:13:41.970 ,1989-08-29 22:14:29.160 ,5,1,11.6,0.634,0.336,7.704E-02,1.064E-02,1.064E-02,2.860E-02,1.716E-03
1989-08-29T22:14:29.970 ,1989-08-29 22:15:17.160 ,6,1,12.0,0.638,0.283,7.071E-02,1.064E-02,1.064E-02,3.440E-02,1.833E-03
1989-08-29T22:15:17.970 ,1989-08-29 22:16:05.160 ,7,1,13.8,0.683,0.301,7.288E-02,2.128E-02,1.505E-02,2.871E-02,1.691E-03
1989-08-29T22:16:05.970 ,1989-08-29 22:17:10.720 ,8,1,12.1,0.548,0.331,6.629E-02,2.128E-02,1.505E-02,3.074E-02,1.499E-03
1989-08-29T22:17:10.780 ,1989-08-29 22:17:41.160 ,8,-1,12.8,0.821,0.133,5.929E-02,0.000E+00,0.000E+00,3.317E-02,2.244E-03
1989-08-29T22:17:41.970 ,1989-08-29 22:18:29.150 ,7,-1,14.0,0.685,0.265,6.844E-02,1.064E-02,1.064E-02,3.033E-02,1.753E-03
1989-08-29T22:18:29.970 ,1989-08-29 22:19:17.150 ,6,-1,12.9,0.660,0.407,8.475E-02,1.064E-02,1.064E-02,3.087E-02,1.785E-03
1989-08-29T22:19:17.970 ,1989-08-29 22:20:05.150 ,5,-1,13.4,0.672,0.318,7.497E-02,3.192E-02,1.843E-02,2.860E-02,1.716E-03
1989-08-29T22:20:05.970 ,1989-08-29 22:20:53.150 ,4,-1,11.4,0.621,0.212,6.122E-02,2.128E-02,1.505E-02,3.128E-02,1.794E-03
1989-08-29T22:20:53.970 ,1989-08-29 22:21:41.150 ,3,-1,11.7,0.645,0.336,7.704E-02,0.000E+00,0.000E+00,3.149E-02,1.801E-03